Weather History for Hayward, WI

Change the Weather History Date:

Thursday, December 26, 2013

  Actual Average Record
Temperature  
Mean Temperature 10 °F -  
Max Temperature 16 °F 21 °F 45 °F (2011)
Min Temperature 1 °F 7 °F -31 °F (1996)
Degree Days  
Heating Degree Days 56    
Moisture  
Dew Point 5 °F    
Average Humidity 80    
Maximum Humidity 92    
Minimum Humidity 73    
Precipitation  
Precipitation 0.00 in - - ()
Sea Level Pressure  
Sea Level Pressure 30.15 in    
Wind  
Wind Speed 0 mph (South)    
Max Wind Speed 4 mph    
Max Gust Speed -    
Visibility 9 miles    
Events Snow    
Averages and records for this station are not official NWS values.
T = Trace of Precipitation, MM = Missing Value Source: NWS Daily Summary

Daily Weather History Graph

Daily Weather History Graph

Search for Another Location

Airport:

Trip Planner

Search our weather history database for the weather conditions in past years. The results will help you decide how hot, cold, wet, or windy it might be!

Date:

Astronomy

Dec. 26, 2013 Rise Set
Actual Time 7:46 AM CST 4:26 PM CST
Civil Twilight 7:12 AM CST 5:00 PM CST
Nautical Twilight 6:34 AM CST 5:38 PM CST
Astronomical Twilight 5:57 AM CST 6:15 PM CST
Moon 1:01 AM CST (12/26) 12:15 PM CST (12/26)
Length of Visible Light 9h 48m
Length of Day
8h 39m
Last Quarter, 38% of the Moon is Illuminated
Dec 26
Last Quarter
Jan 1
New
Jan 7
First Quarter
Jan 15
Full
Jan 23
Last Quarter

Hourly Weather History & Observations

Time (CST) Temp. Windchill Dew Point Humidity Pressure Visibility Wind Dir Wind Speed Gust Speed Precip Events Conditions
12:53 AM 8.1 °F - 1.9 °F 76% 30.12 in 10.0 mi Calm Calm - N/A   Overcast
1:53 AM 8.1 °F - 1.9 °F 76% 30.13 in 10.0 mi Calm Calm - N/A   Overcast
2:13 AM 8.6 °F - 1.4 °F 73% 30.05 in 10.0 mi Calm Calm - N/A   Overcast
2:37 AM 6.8 °F - 1.4 °F 79% 30.06 in 10.0 mi Calm Calm - N/A   Overcast
2:53 AM 8.1 °F - 1.0 °F 73% 30.14 in 10.0 mi Calm Calm - N/A   Overcast
3:53 AM 6.1 °F - 1.9 °F 83% 30.13 in 10.0 mi Calm Calm - N/A   Overcast
4:53 AM 5.0 °F - 1.0 °F 84% 30.14 in 10.0 mi Calm Calm - N/A   Overcast
5:53 AM 5.0 °F - 1.0 °F 84% 30.15 in 10.0 mi Calm Calm - 0.00 in   Overcast
6:53 AM 7.0 °F - 3.0 °F 84% 30.16 in 9.0 mi Calm Calm - N/A   Overcast
7:53 AM 6.1 °F - 1.9 °F 83% 30.16 in 5.0 mi Calm Calm - N/A   Overcast
8:53 AM 8.1 °F - 3.0 °F 80% 30.17 in 5.0 mi Calm Calm - 0.00 in Snow Light Snow
9:53 AM 10.0 °F - 5.0 °F 80% 30.18 in 5.0 mi Calm Calm - 0.00 in Snow Light Snow
10:53 AM 12.0 °F - 6.1 °F 77% 30.19 in 5.0 mi Calm Calm - 0.00 in   Haze
11:53 AM 12.9 °F 6.9 °F 7.0 °F 77% 30.17 in 4.0 mi South 3.5 mph - 0.00 in Snow Light Snow
12:53 PM 14.0 °F - 8.1 °F 77% 30.17 in 7.0 mi Calm Calm - 0.00 in   Overcast
1:12 PM 15.8 °F - 8.6 °F 73% 30.07 in 9.0 mi Calm Calm - N/A   Overcast
1:53 PM 15.1 °F - 8.1 °F 74% 30.15 in 10.0 mi Calm Calm - N/A   Overcast
2:24 PM 15.8 °F - 8.6 °F 73% 30.06 in 10.0 mi Calm Calm - N/A   Overcast
2:53 PM 16.0 °F - 9.0 °F 74% 30.14 in 10.0 mi Calm Calm - N/A   Overcast
3:53 PM 16.0 °F - 10.0 °F 77% 30.17 in 10.0 mi Calm Calm - N/A   Overcast
4:38 PM 15.8 °F - 10.4 °F 79% 30.09 in 10.0 mi Calm Calm - N/A   Overcast
4:53 PM 16.0 °F - 10.9 °F 81% 30.18 in 10.0 mi Calm Calm - N/A   Overcast
5:53 PM 15.1 °F - 10.0 °F 80% 30.20 in 10.0 mi Calm Calm - N/A   Overcast
6:53 PM 14.0 °F - 10.0 °F 84% 30.21 in 10.0 mi Calm Calm - N/A   Overcast
7:53 PM 12.9 °F - 10.0 °F 88% 30.22 in 10.0 mi Calm Calm - N/A   Overcast
8:11 PM 12.2 °F - 10.4 °F 92% 30.14 in 10.0 mi Calm Calm - N/A   Overcast
8:39 PM 10.4 °F - 6.8 °F 85% 30.13 in 9.0 mi Calm Calm - N/A   Overcast
8:53 PM 10.0 °F - 6.1 °F 84% 30.22 in 10.0 mi Calm Calm - N/A   Overcast
9:09 PM 10.4 °F - 6.8 °F 85% 30.13 in 9.0 mi Calm Calm - N/A   Overcast
9:53 PM 9.0 °F - 5.0 °F 84% 30.22 in 10.0 mi Calm Calm - N/A   Mostly Cloudy
10:53 PM 3.9 °F - -0.0 °F 84% 30.22 in 10.0 mi Calm Calm - N/A   Scattered Clouds
11:53 PM 1.0 °F - -2.0 °F 87% 30.23 in 10.0 mi Calm Calm - N/A   Clear